Retour au catalogue

OMNI-L1

ActifScienceSSO
NORAD 52157·PAYLOAD·🇺🇸 United States

Lancé Apr 1, 2022 depuis Cape Canaveral Space Force Station

Loading…

Prochains Passages (prochaines 24 heures)

TLE

FraisSource: Space-Track

Époque: Sep 14, 2026, 04:20 UTC

1 52157U 22033A   26257.18121956  .00001256  00000-0  16094-3 0  9992
2 52157  97.8339 334.6182 0005174  10.4179 349.7141 14.83012333240640

Suivez OMNI-L1 en temps réel avec AllMySat

Download on the App Store